User: anonymous   Login
Location: Hepcat Sky Observatory
(29.9800°N, 95.6500°W)
Time: 18:38:36
(UTC-05:00)
Language:

SL-16 Debris - Orbit

View from above orbital plane
View from above orbital plane
View from above satellite
View from above satellite

Ground track
Ground track

The orbit data is extracted from the following two-line orbital elements,

1 26076U 99040E   14299.35426937  .00020772  00000-0  14684-2 0  4490
2 26076 028.4960 289.0433 4674033 313.2397 144.7533 06.23373568251374
Epoch (UTC): 26 October 2014 08:30:08
Eccentricity: 0.4674033
inclination: 28.4960°
perigee height: 264 km
apogee height: 11922 km
right ascension of ascending node: 289.0433°
argument of perigee: 313.2397°
revolutions per day: 6.23373568
mean anomaly at epoch: 144.7533°
orbit number at epoch: 25137

The dashed part of the orbit path shows where the satellite is in the earth's shadow,  

DLR